This is the latest recevied weather packets stored in our database for station/object F5ZQC-13. If no packets are shown the sender has not sent any weather packets the latest 10 day(s).
| Time | Temp. | Humidity | Pressure | Rain* | Wind** | Luminosity | Snow |
|---|---|---|---|---|---|---|---|
| 1777949968 | 11.11° C | 59% | 1009.8 hPa | 0 mm | - | - | - |
| 1777949723 | 11.11° C | 55% | 1009.9 hPa | 0 mm | - | - | - |
| 1777949602 | 11.11° C | 58% | 1009.5 hPa | 0 mm | - | - | - |
| 1777949358 | 11.11° C | 58% | 1009.6 hPa | 0 mm | - | - | - |
| 1777949236 | 11.11° C | 60% | 1010.2 hPa | 0 mm | - | - | - |
| 1777948991 | 11.11° C | 59% | 1009.9 hPa | 0 mm | - | - | - |
| 1777948746 | 11.11° C | 59% | 1010 hPa | 0 mm | - | - | - |
| 1777948502 | 11.11° C | 59% | 1010.1 hPa | 0 mm | - | - | - |
| 1777948257 | 11.11° C | 59% | 1009.9 hPa | 0 mm | - | - | - |
| 1777948135 | 11.11° C | 58% | 1009.8 hPa | 0 mm | - | - | - |
| 1777947891 | 11.11° C | 59% | 1009.9 hPa | 0 mm | - | - | - |
| 1777947767 | 11.11° C | 57% | 1010.1 hPa | 0 mm | - | - | - |
| 1777947644 | 11.67° C | 58% | 1010.2 hPa | 0 mm | - | - | - |
| 1777947524 | 11.11° C | 58% | 1010 hPa | 0 mm | - | - | - |
| 1777947400 | 11.11° C | 58% | 1009.9 hPa | 0 mm | - | - | - |
| 1777947278 | 11.67° C | 59% | 1009.4 hPa | 0 mm | - | - | - |
| 1777947155 | 11.67° C | 59% | 1010.2 hPa | 0 mm | - | - | - |
| 1777947035 | 11.67° C | 58% | 1009.9 hPa | 0 mm | - | - | - |
| 1777946912 | 11.67° C | 58% | 1009.8 hPa | 0 mm | - | - | - |
| 1777946794 | 11.67° C | 59% | 1010 hPa | 0 mm | - | - | - |
| 1777946666 | 11.67° C | 58% | 1009.8 hPa | 0 mm | - | - | - |
| 1777946423 | 11.67° C | 58% | 1010 hPa | 0 mm | - | - | - |
| 1777946301 | 11.67° C | 58% | 1010 hPa | 0 mm | - | - | - |
| 1777946179 | 11.67° C | 55% | 1009.6 hPa | 0 mm | - | - | - |
| 1777946055 | 11.67° C | 58% | 1010 hPa | 0 mm | - | - | - |
* Rain since midnight (hover to see other rain measurements)
** Current wind speed in m/s (hover to see current wind gust speed)